Location: Leuk
(46.3174°N, 7.6341°E)
Time: 15:31:22
(UTC+00:00)

CENTAUR R/B - Pass Details

Date: 09 March 2021
Orbit: 742 x 1446 km, 63.4° (Epoch: 31 March)

Event Time Altitude Azimuth Distance (km) Brightness Sun altitude
Rises 03:43:15 0° 320° (NW) 4,157 5.6 -23.1°
Reaches altitude 10° 03:45:54 10° 319° (NW) 3,272 5.0 -22.6°
Maximum altitude 03:54:02 78° 235° (SW) 1,421 3.1 -21.3°
Drops below altitude 10° 04:02:55 10° 151° (SSE) 3,552 5.6 -19.8°
Sets 04:05:54 0° 150° (SSE) 4,526 6.2 -19.3°
